User: anonymous   Login
Location: Unspecified
(0.0000°N, 0.0000°E)
Time: 03:34:51
(UTC+00:00)
Language:

BEESAT 4 - Orbit

View from above orbital plane
View from above orbital plane
View from above satellite
View from above satellite

Ground track
Ground track

The orbit data is extracted from the following two-line orbital elements,

1 41619U 16040W   17112.91621117 +.00004764 +00000-0 +22075-3 0  9992
2 41619 097.4677 175.8285 0010505 259.2532 100.7520 15.20523028034198
Epoch (UTC): 22 April 2017 21:59:20
Eccentricity: 0.0010505
inclination: 97.4677°
perigee height: 497 km
apogee height: 511 km
right ascension of ascending node: 175.8285°
argument of perigee: 259.2532°
revolutions per day: 15.20523028
mean anomaly at epoch: 100.7520°
orbit number at epoch: 3419

The dashed part of the orbit path shows where the satellite is in the earth's shadow,  

DLR